Location: Lourdes
(43.1000°N, 0.0500°W)
Time: 12:12:41
(UTC+00:00)

Cosmos 1939 Rocket - Pass Details

Date: 30 November 2020
Orbit: 532 x 584 km, 97.4° (Epoch: 25 January)

Event Time Altitude Azimuth Distance (km) Brightness Sun altitude
Rises 17:31:34 0° 147° (SSE) 2,670 6.2 -11.6°
Reaches altitude 10° 17:33:46 10° 138° (SE) 1,789 5.2 -12.0°
Maximum altitude 17:37:19 36° 71° (ENE) 865 3.3 -12.6°
Drops below altitude 10° 17:40:56 10° 4° (N) 1,823 5.3 -13.3°
Sets 17:43:12 0° 356° (N) 2,730 6.2 -13.7°
